Location: Miles
(41.4492°N, 81.6087°W)
Time: 23:25:06
(UTC+00:00)

Courier 1B Rocket - Pass Details

Date: 13 September 2024
Orbit: 920 x 1201 km, 28.2° (Epoch: 09 October)

Event Time Altitude Azimuth Distance (km) Brightness Sun altitude
Rises 21:32:14 0° 223° (SW) 3,708 9.0 22.6°
Reaches altitude 10° 21:35:34 10° 207° (SSW) 2,809 8.2 22.0°
Maximum altitude 21:40:24 20° 163° (SSE) 2,214 7.0 21.1°
Drops below altitude 10° 21:45:27 10° 118° (ESE) 2,963 7.2 20.2°
Sets 21:49:05 0° 103° (ESE) 3,974 7.7 19.5°
